{"data":{"norad_id":35931,"epoch":"2026-09-20T04:53:53.896128Z","epoch_age_seconds":39921,"freshness":"FRESH","line1":"1 35931U 09051A   26263.20409602 -.00000102  00000+0 -43691-4 0  9999","line2":"2 35931  98.2426 240.6082 0015117 330.5374  29.4939 13.99665853892624","mean_motion":13.99665853,"eccentricity":0.0015117,"inclination_deg":98.2426,"raan_deg":240.6082,"arg_perigee_deg":330.5374,"mean_anomaly_deg":29.4939,"bstar":-4.3691e-5,"rev_number":89262,"period_min":102.88169829346,"perigee_km":883.9577340629,"apogee_km":905.94719274656,"semimajor_km":7273.0894634047,"source":"CELESTRAK","updated_at":"2026-09-20T09:00:33.889902Z"}}